Time,TemperatureF,DewpointF,PressureIn,WindDirection,WindDirectionDegrees,WindSpeedMPH,WindSpeedGustMPH,Humidity,HourlyPrecipIn,Conditions,Clouds,dailyrainin,SoftwareType,DateUTC
2013-07-12 00:02:00,78.0,72.0,-100.00,SSE,150,12.0,14.0,82,-99.99,,,-99.99,,2013-07-12 05:02:00,
2013-07-12 00:10:00,78.0,72.0,-100.00,South,170,10.0,12.0,82,-99.99,,,-99.99,,2013-07-12 05:10:00,
2013-07-12 00:43:00,78.0,72.0,-100.00,South,170,10.0,12.0,82,-99.99,,,-99.99,,2013-07-12 05:43:00,
2013-07-12 00:53:00,78.0,72.0,-100.00,South,170,10.0,12.0,82,-99.99,,,-99.99,,2013-07-12 05:53:00,
2013-07-12 01:01:00,78.0,72.0,-100.00,South,170,10.0,12.0,82,-99.99,,,-99.99,,2013-07-12 06:01:00,
2013-07-12 01:10:00,76.0,72.0,-100.00,SE,135,8.0,9.0,88,-99.99,,,-99.99,,2013-07-12 06:10:00,
2013-07-12 01:42:00,76.0,72.0,-100.00,SE,135,8.0,9.0,88,-99.99,,,-99.99,,2013-07-12 06:42:00,
2013-07-12 01:52:00,76.0,72.0,-100.00,SE,135,8.0,9.0,88,-99.99,,,-99.99,,2013-07-12 06:52:00,
2013-07-12 02:02:00,76.0,72.0,-100.00,SE,135,8.0,9.0,88,-99.99,,,-99.99,,2013-07-12 07:02:00,
2013-07-12 02:10:00,74.0,72.0,-100.00,SE,140,9.0,11.0,92,-99.99,,,-99.99,,2013-07-12 07:10:00,
2013-07-12 02:33:00,74.0,72.0,-100.00,SE,140,9.0,11.0,92,-99.99,,,-99.99,,2013-07-12 07:33:00,
2013-07-12 02:43:00,74.0,72.0,-100.00,SE,140,9.0,11.0,92,-99.99,,,-99.99,,2013-07-12 07:43:00,
2013-07-12 02:52:00,74.0,72.0,-100.00,SE,140,9.0,11.0,92,-99.99,,,-99.99,,2013-07-12 07:52:00,
2013-07-12 03:01:00,74.0,72.0,-100.00,SE,140,9.0,11.0,92,-99.99,,,-99.99,,2013-07-12 08:01:00,
2013-07-12 03:11:00,75.0,72.0,-100.00,SSE,160,9.0,10.0,91,-99.99,,,-99.99,,2013-07-12 08:11:00,
2013-07-12 03:42:00,75.0,72.0,-100.00,SSE,160,9.0,10.0,91,-99.99,,,-99.99,,2013-07-12 08:42:00,
2013-07-12 03:53:00,75.0,72.0,-100.00,SSE,160,9.0,10.0,91,-99.99,,,-99.99,,2013-07-12 08:53:00,
2013-07-12 04:02:00,75.0,72.0,-100.00,SSE,160,9.0,10.0,91,-99.99,,,-99.99,,2013-07-12 09:02:00,
2013-07-12 04:43:00,74.0,71.0,-100.00,SSW,210,3.0,4.0,92,-99.99,,,-99.99,,2013-07-12 09:43:00,
2013-07-12 04:52:00,74.0,71.0,-100.00,SSW,210,3.0,4.0,92,-99.99,,,-99.99,,2013-07-12 09:52:00,
2013-07-12 05:01:00,74.0,71.0,-100.00,SSW,210,3.0,4.0,92,-99.99,,,-99.99,,2013-07-12 10:01:00,
2013-07-12 05:42:00,74.0,72.0,-100.00,SSE,160,17.0,19.0,94,-99.99,,,-99.99,,2013-07-12 10:42:00,
2013-07-12 05:52:00,74.0,72.0,-100.00,SSE,160,17.0,19.0,94,-99.99,,,-99.99,,2013-07-12 10:52:00,
2013-07-12 06:02:00,74.0,72.0,-100.00,SSE,160,17.0,19.0,94,-99.99,,,-99.99,,2013-07-12 11:02:00,
2013-07-12 06:10:00,72.0,71.0,-100.00,SSE,155,13.0,15.0,97,-99.99,,,-99.99,,2013-07-12 11:10:00,
2013-07-12 06:43:00,72.0,71.0,-100.00,SSE,155,13.0,15.0,97,-99.99,,,-99.99,,2013-07-12 11:43:00,
2013-07-12 06:53:00,72.0,71.0,-100.00,SSE,155,13.0,15.0,97,-99.99,,,-99.99,,2013-07-12 11:53:00,
2013-07-12 07:01:00,72.0,71.0,-100.00,SSE,155,13.0,15.0,97,-99.99,,,-99.99,,2013-07-12 12:01:00,
2013-07-12 07:11:00,72.0,72.0,-100.00,SE,140,10.0,13.0,99,-99.99,,,-99.99,,2013-07-12 12:11:00,
2013-07-12 07:43:00,72.0,72.0,-100.00,SE,140,10.0,13.0,99,-99.99,,,-99.99,,2013-07-12 12:43:00,
2013-07-12 07:52:00,72.0,72.0,-100.00,SE,140,10.0,13.0,99,-99.99,,,-99.99,,2013-07-12 12:52:00,
2013-07-12 08:01:00,72.0,72.0,-100.00,SE,140,10.0,13.0,99,-99.99,,,-99.99,,2013-07-12 13:01:00,
2013-07-12 08:10:00,73.0,72.0,-100.00,SSE,160,12.0,14.0,99,-99.99,,,-99.99,,2013-07-12 13:10:00,
2013-07-12 08:43:00,73.0,72.0,-100.00,SSE,160,12.0,14.0,99,-99.99,,,-99.99,,2013-07-12 13:43:00,
2013-07-12 08:53:00,73.0,72.0,-100.00,SSE,160,12.0,14.0,99,-99.99,,,-99.99,,2013-07-12 13:53:00,
2013-07-12 09:02:00,73.0,72.0,-100.00,SSE,160,12.0,14.0,99,-99.99,,,-99.99,,2013-07-12 14:02:00,
2013-07-12 09:11:00,76.0,74.0,-100.00,South,185,14.0,17.0,92,-99.99,,,-99.99,,2013-07-12 14:11:00,
2013-07-12 09:44:00,76.0,74.0,-100.00,South,185,14.0,17.0,92,-99.99,,,-99.99,,2013-07-12 14:44:00,
2013-07-12 09:53:00,76.0,74.0,-100.00,South,185,14.0,17.0,92,-99.99,,,-99.99,,2013-07-12 14:53:00,
2013-07-12 10:02:00,76.0,74.0,-100.00,South,185,14.0,17.0,92,-99.99,,,-99.99,,2013-07-12 15:02:00,
2013-07-12 10:43:00,77.0,74.0,-100.00,SSE,165,11.0,15.0,91,-99.99,,,-99.99,,2013-07-12 15:43:00,
2013-07-12 10:53:00,77.0,74.0,-100.00,SSE,165,11.0,15.0,91,-99.99,,,-99.99,,2013-07-12 15:53:00,
2013-07-12 11:01:00,77.0,74.0,-100.00,SSE,165,11.0,15.0,91,-99.99,,,-99.99,,2013-07-12 16:01:00,
2013-07-12 11:11:00,77.0,74.0,-100.00,SSE,165,11.0,15.0,91,-99.99,,,-99.99,,2013-07-12 16:11:00,
2013-07-12 11:43:00,80.0,74.0,-100.00,SSW,210,15.0,18.0,81,-99.99,,,-99.99,,2013-07-12 16:43:00,
2013-07-12 11:58:00,80.0,74.0,-100.00,SSW,210,15.0,18.0,81,-99.99,,,-99.99,,2013-07-12 16:58:00,
2013-07-12 12:05:00,80.0,74.0,-100.00,SSW,210,15.0,18.0,81,-99.99,,,-99.99,,2013-07-12 17:05:00,
2013-07-12 12:11:00,82.0,75.0,-100.00,SSW,210,8.0,10.0,80,-99.99,,,-99.99,,2013-07-12 17:11:00,
2013-07-12 12:47:00,82.0,75.0,-100.00,SSW,210,8.0,10.0,80,-99.99,,,-99.99,,2013-07-12 17:47:00,
2013-07-12 12:55:00,82.0,75.0,-100.00,SSW,210,8.0,10.0,80,-99.99,,,-99.99,,2013-07-12 17:55:00,
2013-07-12 13:06:00,82.0,75.0,-100.00,SSW,210,8.0,10.0,80,-99.99,,,-99.99,,2013-07-12 18:06:00,
2013-07-12 13:11:00,84.0,76.0,-100.00,South,185,6.0,8.0,77,-99.99,,,-99.99,,2013-07-12 18:11:00,
2013-07-12 13:51:00,84.0,76.0,-100.00,South,185,6.0,8.0,77,-99.99,,,-99.99,,2013-07-12 18:51:00,
2013-07-12 13:57:00,84.0,76.0,-100.00,South,185,6.0,8.0,77,-99.99,,,-99.99,,2013-07-12 18:57:00,
2013-07-12 14:04:00,84.0,76.0,-100.00,South,185,6.0,8.0,77,-99.99,,,-99.99,,2013-07-12 19:04:00,
2013-07-12 14:10:00,83.0,76.0,-100.00,West,270,4.0,5.0,79,-99.99,,,-99.99,,2013-07-12 19:10:00,
2013-07-12 14:47:00,83.0,76.0,-100.00,West,270,4.0,5.0,79,-99.99,,,-99.99,,2013-07-12 19:47:00,
2013-07-12 14:58:00,83.0,76.0,-100.00,West,270,4.0,5.0,79,-99.99,,,-99.99,,2013-07-12 19:58:00,
2013-07-12 15:11:00,79.0,76.0,-100.00,West,260,8.0,12.0,90,-99.99,,,-99.99,,2013-07-12 20:11:00,
2013-07-12 15:35:00,79.0,76.0,-100.00,West,260,8.0,12.0,90,-99.99,,,-99.99,,2013-07-12 20:35:00,
2013-07-12 15:47:00,79.0,76.0,-100.00,West,260,8.0,12.0,90,-99.99,,,-99.99,,2013-07-12 20:47:00,
2013-07-12 15:55:00,79.0,76.0,-100.00,West,260,8.0,12.0,90,-99.99,,,-99.99,,2013-07-12 20:55:00,
2013-07-12 16:02:00,79.0,76.0,-100.00,West,260,8.0,12.0,90,-99.99,,,-99.99,,2013-07-12 21:02:00,
2013-07-12 17:10:00,71.0,71.0,-100.00,NNE,15,9.0,12.0,99,-99.99,,,-99.99,,2013-07-12 22:10:00,
2013-07-12 17:46:00,71.0,71.0,-100.00,NNE,15,9.0,12.0,99,-99.99,,,-99.99,,2013-07-12 22:46:00,
2013-07-12 17:56:00,71.0,71.0,-100.00,NNE,15,9.0,12.0,99,-99.99,,,-99.99,,2013-07-12 22:56:00,
2013-07-12 18:03:00,71.0,71.0,-100.00,NNE,15,9.0,12.0,99,-99.99,,,-99.99,,2013-07-12 23:03:00,
2013-07-12 18:11:00,73.0,72.0,-100.00,NW,310,2.0,2.0,99,-99.99,,,-99.99,,2013-07-12 23:11:00,
2013-07-12 18:45:00,73.0,72.0,-100.00,NW,310,2.0,2.0,99,-99.99,,,-99.99,,2013-07-12 23:45:00,
2013-07-12 18:58:00,73.0,72.0,-100.00,NW,310,2.0,2.0,99,-99.99,,,-99.99,,2013-07-12 23:58:00,
2013-07-12 19:04:00,73.0,72.0,-100.00,NW,310,2.0,2.0,99,-99.99,,,-99.99,,2013-07-13 00:04:00,
2013-07-12 19:11:00,76.0,76.0,-100.00,NW,305,5.0,6.0,99,-99.99,,,-99.99,,2013-07-13 00:11:00,
2013-07-12 19:49:00,76.0,76.0,-100.00,NW,305,5.0,6.0,99,-99.99,,,-99.99,,2013-07-13 00:49:00,
2013-07-12 19:56:00,76.0,76.0,-100.00,NW,305,5.0,6.0,99,-99.99,,,-99.99,,2013-07-13 00:56:00,
2013-07-12 20:03:00,76.0,76.0,-100.00,NW,305,5.0,6.0,99,-99.99,,,-99.99,,2013-07-13 01:03:00,
2013-07-12 20:10:00,75.0,75.0,-100.00,West,260,5.0,6.0,99,-99.99,,,-99.99,,2013-07-13 01:10:00,
2013-07-12 20:49:00,75.0,75.0,-100.00,West,260,5.0,6.0,99,-99.99,,,-99.99,,2013-07-13 01:49:00,
2013-07-12 20:56:00,75.0,75.0,-100.00,West,260,5.0,6.0,99,-99.99,,,-99.99,,2013-07-13 01:56:00,
2013-07-12 21:04:00,75.0,75.0,-100.00,West,260,5.0,6.0,99,-99.99,,,-99.99,,2013-07-13 02:04:00,
2013-07-12 21:48:00,73.0,73.0,-100.00,NW,325,2.0,2.0,99,-99.99,,,-99.99,,2013-07-13 02:48:00,
2013-07-12 21:55:00,73.0,73.0,-100.00,NW,325,2.0,2.0,99,-99.99,,,-99.99,,2013-07-13 02:55:00,
2013-07-12 22:05:00,73.0,73.0,-100.00,NW,325,2.0,2.0,99,-99.99,,,-99.99,,2013-07-13 03:05:00,
2013-07-12 22:11:00,71.0,70.0,-100.00,West,265,1.0,2.0,99,-99.99,,,-99.99,,2013-07-13 03:11:00,
2013-07-12 22:46:00,71.0,70.0,-100.00,West,265,1.0,2.0,99,-99.99,,,-99.99,,2013-07-13 03:46:00,
2013-07-12 22:57:00,71.0,70.0,-100.00,West,265,1.0,2.0,99,-99.99,,,-99.99,,2013-07-13 03:57:00,
2013-07-12 23:01:00,71.0,70.0,-100.00,West,265,1.0,2.0,99,-99.99,,,-99.99,,2013-07-13 04:01:00,
2013-07-12 23:11:00,69.0,69.0,-100.00,West,260,1.0,1.0,99,-99.99,,,-99.99,,2013-07-13 04:11:00,
2013-07-12 23:32:00,69.0,69.0,-100.00,West,260,1.0,1.0,99,-99.99,,,-99.99,,2013-07-13 04:32:00,
2013-07-12 23:44:00,69.0,69.0,-100.00,West,260,1.0,1.0,99,-99.99,,,-99.99,,2013-07-13 04:44:00,
2013-07-12 23:52:00,69.0,69.0,-100.00,West,260,1.0,1.0,99,-99.99,,,-99.99,,2013-07-13 04:52:00,